Volver al catálogo

KUIPER-00177

ActivoComunicacionesLEO
NORAD 67766·PAYLOAD·🇺🇸 United States

Lanzado Feb 12, 2026 desde Guiana Space Centre

Loading…

Próximos Pases (próximas 24 horas)

TLE

ActualizadoSource: CelesTrak SupGP

Época: Sep 15, 2026, 04:10 UTC

1 67766C 26030C   26258.17395833  .00001356  00000+0  17755-3 0  2585
2 67766  51.8990  95.2283 0000888  88.7501 269.3469 14.79915802    14

Sigue KUIPER-00177 en tiempo real con AllMySat

Download on the App Store